When you browse on this site, cookies collect data to enhance your experience and personalize the content and advertising you see.
Visit our Privacy Policy to learn more. By continuing to use the site, you agree to this use of cookies and data.
  • In Slovakia
  • List of Countries
  • For 7 days
  • Water Temperature
  • Weather Map
  • Weather Widgets
  • user-avatar
    Login

    Hourly Weather Santa Fe

    Today, 22 January, Wednesday

    Time Temperature Precipitation Wind Pressure Humidity
    00:00 +25°C° 0 mm 3 mps 755 mmHg 83%
    01:00 +24°C° 0 mm 3 mps 755 mmHg 84%
    02:00 +24°C° 0 mm 3 mps 755 mmHg 86%
    03:00 +24°C° 0 mm 3 mps 755 mmHg 85%
    04:00 +22°C° 0 mm 3 mps 756 mmHg 84%
    05:00 +22°C° 0 mm 3 mps 756 mmHg 83%
    06:00 +23°C° 0 mm 4 mps 756 mmHg 78%
    07:00 +26°C° 0 mm 4 mps 757 mmHg 73%
    08:00 +27°C° 0 mm 5 mps 757 mmHg 67%
    09:00 +29°C° 0 mm 5 mps 757 mmHg 60%
    10:00 +32°C° 0 mm 5 mps 757 mmHg 52%
    11:00 +34°C° 0 mm 5 mps 757 mmHg 44%
    12:00 +35°C° 0 mm 5 mps 757 mmHg 41%
    13:00 +36°C° 0 mm 5 mps 756 mmHg 38%
    14:00 +37°C° 0 mm 5 mps 756 mmHg 34%
    15:00 +37°C° 0 mm 5 mps 755 mmHg 35%
    16:00 +37°C° 0 mm 5 mps 755 mmHg 35%
    17:00 +37°C° 0 mm 4 mps 754 mmHg 35%
    18:00 +35°C° 0 mm 4 mps 755 mmHg 39%
    19:00 +33°C° 0 mm 3 mps 755 mmHg 44%
    20:00 +29°C° 0 mm 2 mps 756 mmHg 49%
    21:00 +29°C° 0 mm 2 mps 756 mmHg 51%
    22:00 +28°C° 0 mm 2 mps 756 mmHg 54%
    23:00 +27°C° 0 mm 2 mps 757 mmHg 57%

    Tomorrow, 23 January, Thursday

    Time Temperature Precipitation Wind Pressure Humidity
    00:00 +26°C° 0 mm 2 mps 757 mmHg 60%
    01:00 +26°C° 0 mm 2 mps 757 mmHg 63%
    02:00 +25°C° 0 mm 2 mps 757 mmHg 65%
    03:00 +25°C° 0 mm 2 mps 757 mmHg 68%
    04:00 +24°C° 0 mm 2 mps 757 mmHg 71%
    05:00 +23°C° 0 mm 2 mps 758 mmHg 73%
    06:00 +25°C° 0 mm 2 mps 758 mmHg 67%
    07:00 +26°C° 0 mm 3 mps 758 mmHg 62%
    08:00 +28°C° 0 mm 3 mps 759 mmHg 56%
    09:00 +29°C° 0 mm 3 mps 758 mmHg 51%
    10:00 +31°C° 0 mm 3 mps 758 mmHg 46%
    11:00 +34°C° 0 mm 3 mps 758 mmHg 42%
    12:00 +35°C° 0 mm 2 mps 757 mmHg 37%
    13:00 +36°C° 0 mm 2 mps 756 mmHg 33%
    14:00 +37°C° 0 mm 2 mps 756 mmHg 29%
    15:00 +37°C° 0 mm 2 mps 755 mmHg 28%
    16:00 +37°C° 0 mm 2 mps 755 mmHg 26%
    17:00 +37°C° 0 mm 2 mps 754 mmHg 25%
    18:00 +35°C° 0 mm 2 mps 755 mmHg 31%
    19:00 +31°C° 0 mm 2 mps 755 mmHg 36%
    20:00 +28°C° 0 mm 2 mps 755 mmHg 41%
    21:00 +27°C° 0 mm 2 mps 756 mmHg 43%
    22:00 +26°C° 0 mm 2 mps 756 mmHg 45%
    23:00 +25°C° 0 mm 2 mps 756 mmHg 47%

    Day after tomorrow, 24 January, Friday

    Time Temperature Precipitation Wind Pressure Humidity
    00:00 +25°C° 0 mm 2 mps 756 mmHg 48%
    01:00 +25°C° 0 mm 2 mps 756 mmHg 49%
    02:00 +24°C° 0 mm 2 mps 756 mmHg 50%
    03:00 +24°C° 0 mm 2 mps 756 mmHg 53%
    04:00 +23°C° 0 mm 2 mps 756 mmHg 56%
    05:00 +23°C° 0 mm 2 mps 756 mmHg 59%
    06:00 +25°C° 0 mm 2 mps 756 mmHg 56%
    07:00 +26°C° 0 mm 3 mps 757 mmHg 54%
    08:00 +28°C° 0 mm 3 mps 757 mmHg 52%
    09:00 +30°C° 0 mm 3 mps 757 mmHg 47%
    10:00 +33°C° 0 mm 3 mps 756 mmHg 42%
    11:00 +35°C° 0 mm 3 mps 756 mmHg 37%
    12:00 +36°C° 0 mm 3 mps 756 mmHg 33%
    13:00 +37°C° 0 mm 3 mps 755 mmHg 30%
    14:00 +38°C° 0 mm 3 mps 754 mmHg 26%
    15:00 +38°C° 0 mm 3 mps 754 mmHg 26%
    16:00 +38°C° 0 mm 3 mps 753 mmHg 26%
    17:00 +38°C° 0 mm 3 mps 752 mmHg 26%
    18:00 +35°C° 0 mm 3 mps 752 mmHg 31%
    19:00 +33°C° 0 mm 3 mps 753 mmHg 36%
    20:00 +29°C° 0 mm 3 mps 753 mmHg 40%
    21:00 +29°C° 0 mm 3 mps 753 mmHg 43%
    22:00 +28°C° 0 mm 3 mps 753 mmHg 45%
    23:00 +27°C° 0 mm 3 mps 753 mmHg 48%

    25 January, Saturday

    Time Temperature Precipitation Wind Pressure Humidity
    00:00 +27°C° 0 mm 3 mps 753 mmHg 49%
    01:00 +26°C° 0 mm 2 mps 753 mmHg 50%
    02:00 +26°C° 0 mm 2 mps 753 mmHg 52%
    03:00 +25°C° 0 mm 2 mps 753 mmHg 53%
    04:00 +25°C° 0 mm 2 mps 753 mmHg 54%
    05:00 +25°C° 0 mm 2 mps 753 mmHg 55%
    06:00 +26°C° 0 mm 3 mps 753 mmHg 51%
    07:00 +28°C° 0 mm 3 mps 753 mmHg 46%
    08:00 +30°C° 0 mm 3 mps 754 mmHg 42%
    09:00 +34°C° 0 mm 4 mps 754 mmHg 37%
    10:00 +36°C° 0 mm 4 mps 753 mmHg 32%
    11:00 +40°C° 0 mm 4 mps 753 mmHg 27%
    12:00 +41°C° 0 mm 4 mps 753 mmHg 24%
    13:00 +42°C° 0 mm 3 mps 752 mmHg 22%
    14:00 +43°C° 0 mm 3 mps 751 mmHg 20%
    15:00 +43°C° 0 mm 3 mps 751 mmHg 19%
    16:00 +43°C° 0 mm 3 mps 750 mmHg 19%
    17:00 +44°C° 0 mm 4 mps 750 mmHg 19%
    18:00 +41°C° 0 mm 4 mps 750 mmHg 25%
    19:00 +37°C° 0 mm 3 mps 750 mmHg 32%
    20:00 +34°C° 0 mm 3 mps 751 mmHg 38%
    21:00 +33°C° 0 mm 3 mps 751 mmHg 41%
    22:00 +30°C° 0 mm 2 mps 751 mmHg 45%
    23:00 +29°C° 0 mm 1 mps 752 mmHg 48%

    26 January, Sunday

    Time Temperature Precipitation Wind Pressure Humidity
    00:00 +29°C° 0 mm 2 mps 752 mmHg 50%
    01:00 +28°C° 0 mm 2 mps 752 mmHg 51%
    02:00 +27°C° 0 mm 2 mps 751 mmHg 53%
    03:00 +27°C° 0 mm 2 mps 752 mmHg 54%
    04:00 +26°C° 0 mm 1 mps 752 mmHg 55%
    05:00 +26°C° 0 mm 1 mps 752 mmHg 57%
    06:00 +28°C° 0 mm 2 mps 752 mmHg 52%
    07:00 +30°C° 0 mm 2 mps 752 mmHg 46%
    08:00 +32°C° 0 mm 2 mps 753 mmHg 41%
    09:00 +35°C° 0 mm 2 mps 753 mmHg 33%
    10:00 +38°C° 0 mm 3 mps 753 mmHg 24%
    11:00 +42°C° 0 mm 3 mps 753 mmHg 15%
    12:00 +43°C° 0 mm 3 mps 752 mmHg 14%
    13:00 +43°C° 0 mm 3 mps 752 mmHg 14%
    14:00 +44°C° 0 mm 3 mps 751 mmHg 13%
    15:00 +44°C° 0 mm 3 mps 751 mmHg 13%
    16:00 +44°C° 0 mm 3 mps 750 mmHg 13%
    17:00 +44°C° 0 mm 3 mps 750 mmHg 12%
    18:00 +42°C° 0 mm 3 mps 751 mmHg 15%
    19:00 +38°C° 0 mm 4 mps 751 mmHg 17%
    20:00 +35°C° 0 mm 4 mps 751 mmHg 19%
    21:00 +34°C° 0 mm 3 mps 752 mmHg 21%
    22:00 +34°C° 0 mm 3 mps 752 mmHg 23%
    23:00 +33°C° 0 mm 3 mps 753 mmHg 25%

    27 January, Monday

    Time Temperature Precipitation Wind Pressure Humidity
    00:00 +31°C° 0 mm 2 mps 753 mmHg 28%
    01:00 +31°C° 0 mm 2 mps 753 mmHg 31%
    02:00 +30°C° 0 mm 2 mps 753 mmHg 34%
    03:00 +29°C° 0 mm 2 mps 754 mmHg 36%
    04:00 +29°C° 0 mm 2 mps 754 mmHg 37%
    05:00 +28°C° 0 mm 2 mps 755 mmHg 39%
    06:00 +29°C° 0 mm 2 mps 755 mmHg 37%
    07:00 +30°C° 0 mm 2 mps 756 mmHg 36%
    08:00 +31°C° 0 mm 2 mps 756 mmHg 35%
    09:00 +34°C° 0 mm 2 mps 757 mmHg 33%
    10:00 +35°C° 0 mm 2 mps 757 mmHg 30%
    11:00 +36°C° 0 mm 2 mps 757 mmHg 28%
    12:00 +37°C° 0 mm 3 mps 756 mmHg 26%
    13:00 +38°C° 0 mm 3 mps 756 mmHg 24%
    14:00 +39°C° 0 mm 3 mps 755 mmHg 22%
    15:00 +39°C° 0 mm 3 mps 755 mmHg 22%
    16:00 +38°C° 0 mm 3 mps 755 mmHg 22%
    17:00 +38°C° 0 mm 3 mps 755 mmHg 23%
    18:00 +36°C° 0 mm 4 mps 755 mmHg 26%
    19:00 +34°C° 0 mm 4 mps 755 mmHg 30%
    20:00 +32°C° 0 mm 4 mps 755 mmHg 33%
    21:00 +31°C° 0 mm 3 mps 755 mmHg 34%
    22:00 +31°C° 0 mm 3 mps 755 mmHg 35%
    23:00 +31°C° 0 mm 2 mps 756 mmHg 36%
    Show more